Regional Weather Roundup
Issued by NWS Charleston, WV

Home | Current Version | Previous Version | Text Only | Print | Product List | Glossary On
Versions: 1 2 3 4 5 6 7 8 9 10 11 12 13 14 15 16 17 18 19 20 21 22 23 24 25 26 27
000
ASUS41 KRLX 300810
RWRRLX
West Virginia Regional Weather Roundup
National Weather Service Charleston WV
400 AM EDT THU MAR 30 2017

Note: "fair" indicates few or no clouds below 12,000 feet with no
significant weather and/or obstructions to visibility.

WVZ003-300900-
Northern Panhandle of West Virginia

CITY           SKY/WX    TMP DP  RH WIND       PRES   REMARKS
WHEELING       MOCLDY    45  29  53 E12       30.04F
$$

WVZ009-300900-
Northwest West Virginia

CITY           SKY/WX    TMP DP  RH WIND       PRES   REMARKS
PARKERSBURG    CLOUDY    49  34  56 E3        30.01F
$$

WVZ006-300900-
Western West Virginia

CITY           SKY/WX    TMP DP  RH WIND       PRES   REMARKS
HUNTINGTON     PTCLDY    51  42  71 SE5       29.94F
$$

WVZ015-300900-
West Central West Virginia

CITY           SKY/WX    TMP DP  RH WIND       PRES   REMARKS
CHARLESTON     PTCLDY    44  42  93 CALM      29.95F
$$

WVZ022-031-300900-
North Central West Virginia

CITY           SKY/WX    TMP DP  RH WIND       PRES   REMARKS
CLARKSBURG     CLEAR     45  34  65 NE6       30.02F
MORGANTOWN     CLEAR     50  32  50 NE6       30.06S
$$

WVZ025-035-042-045-300900-
Southern West Virginia

CITY           SKY/WX    TMP DP  RH WIND       PRES   REMARKS
BECKLEY        CLEAR     54  46  74 SE16G31   30.04S
LOGAN            N/A     59  48  67 VRB5      29.97F
BLUEFIELD      MOCLDY    54  46  74 SE13G20   30.06F
LEWISBURG      CLOUDY    53  41  62 CALM      30.10S
$$

WVZ047-300900-
Northern Mountains of West Virginia

CITY           SKY/WX    TMP DP  RH WIND       PRES   REMARKS
ELKINS         CLEAR     47  35  63 SE5       30.05F
$$

WVZ052-300900-
Eastern Panhandle of West Virginia

CITY           SKY/WX    TMP DP  RH WIND       PRES   REMARKS
MARTINSBURG    CLEAR     41  33  73 N3        30.20R
PETERSBURG     CLEAR     39  37  92 W3        30.15R
$$




USA.gov is the U.S. government's official web portal to all federal, state and local government web resources and services.